Del Rio, TX

7:06 AM CDT on July 22, 2017 (GMT -0500)
Del Rio International

Weather History for KDRT - July, 2013

Change the Weather History Date:

Tuesday, July 30, 2013

  Actual Average Record
Temperature  
Mean Temperature 90 °F 86 °F  
Max Temperature 101 °F 98 °F 111 °F (1960)
Min Temperature 79 °F 76 °F 69 °F (1987)
Degree Days  
Heating Degree Days 0 0  
Month to date heating degree days 0 0  
Since 1 June heating degree days 0 0  
Since 1 July heating degree days 0 0  
Cooling Degree Days 25 22  
Month to date cooling degree days 635 625  
Year to date cooling degree days 2166 1955  
Since 1 June cooling degree days 1260 1196  
Growing Degree Days 40 (Base 50)    
Moisture  
Dew Point 67 °F    
Average Humidity 53    
Maximum Humidity 79    
Minimum Humidity 27    
Precipitation  
Precipitation 0.00 in 0.05 in 1.73 in (1978)
Month to date precipitation 2.77 1.73  
Year to date precipitation 7.75 11.28  
Sea Level Pressure  
Sea Level Pressure 29.94 in    
Wind  
Wind Speed 11 mph (ESE)    
Max Wind Speed 17 mph    
Max Gust Speed 24 mph    
Visibility 10 miles    
Events      
T = Trace of Precipitation, MM = Missing Value Source: NWS Daily Summary

Daily Weather History Graph

Daily Weather History Graph

Search for Another Location

Airport or City:

Trip Planner

Search our weather history database for the weather conditions in past years. The results will help you decide how hot, cold, wet, or windy it might be!

Date:

Astronomy

Jul. 30, 2013 Rise Set
Actual Time 7:02 AM CDT 8:36 PM CDT
Civil Twilight 6:37 AM CDT 9:02 PM CDT
Nautical Twilight 6:06 AM CDT 9:33 PM CDT
Astronomical Twilight 5:33 AM CDT 10:05 PM CDT
Moon 1:18 AM CDT (7/30) 3:00 PM CDT (7/30)
Length of Visible Light 14h 25m
Length of Day
13h 34m
Last Quarter, 41% of the Moon is Illuminated
Jul 30
Last Quarter
Aug 6
New
Aug 14
First Quarter
Aug 20
Full
Aug 28
Last Quarter

Hourly Weather History & Observations

Time (CDT) Temp. Heat Index Dew Point Humidity Pressure Visibility Wind Dir Wind Speed Gust Speed Precip Events Conditions
12:53 AM 87.1 °F 89.9 °F 66.9 °F 51% 29.90 in 10.0 mi ESE 10.4 mph - N/A   Unknown
1:53 AM 86.0 °F 90.7 °F 70.0 °F 59% 29.91 in 10.0 mi ESE 12.7 mph - N/A   Unknown
2:53 AM 84.0 °F 88.4 °F 70.0 °F 63% 29.93 in 10.0 mi ESE 10.4 mph - N/A   Unknown
3:53 AM 82.9 °F 87.5 °F 71.1 °F 67% 29.95 in 10.0 mi East 11.5 mph - N/A   Unknown
4:53 AM 82.0 °F 86.3 °F 71.1 °F 69% 29.95 in 10.0 mi ESE 11.5 mph - N/A   Unknown
5:53 AM 80.1 °F 83.6 °F 71.1 °F 74% 29.96 in 10.0 mi ESE 10.4 mph - N/A   Unknown
6:53 AM 79.0 °F - 71.1 °F 77% 29.98 in 10.0 mi ESE 13.8 mph - N/A   Unknown
7:53 AM 80.1 °F 83.6 °F 71.1 °F 74% 30.00 in 10.0 mi ESE 9.2 mph - N/A   Unknown
8:53 AM 81.0 °F 85.2 °F 72.0 °F 74% 30.00 in 10.0 mi SE 10.4 mph - N/A   Unknown
9:53 AM 82.9 °F 88.0 °F 72.0 °F 69% 30.00 in 10.0 mi SE 13.8 mph - N/A   Unknown
10:53 AM 84.9 °F 90.1 °F 71.1 °F 63% 30.01 in 10.0 mi SE 12.7 mph - N/A   Unknown
11:53 AM 88.0 °F 93.8 °F 71.1 °F 57% 30.00 in 10.0 mi ESE 11.5 mph 18.4 mph N/A   Unknown
12:53 PM 91.0 °F 95.6 °F 69.1 °F 48% 29.99 in 10.0 mi ESE 12.7 mph - N/A   Unknown
1:53 PM 93.9 °F 98.6 °F 68.0 °F 43% 29.96 in 10.0 mi SE 15.0 mph - N/A   Unknown
2:53 PM - - - N/A% 29.99 in 10.0 mi SE 12.7 mph - N/A   Unknown
3:53 PM 98.1 °F 99.1 °F 62.1 °F 30% 29.91 in 10.0 mi SE 12.7 mph - 0.00 in   Clear
4:53 PM 100.0 °F 101.2 °F 61.0 °F 28% 29.90 in 10.0 mi SE 15.0 mph 20.7 mph N/A   Clear
5:53 PM 100.0 °F 101.8 °F 62.1 °F 29% 29.88 in 10.0 mi SE 13.8 mph - N/A   Clear
6:53 PM 98.1 °F 98.1 °F 60.1 °F 28% 29.87 in 10.0 mi SE 11.5 mph - N/A   Clear
7:53 PM 97.0 °F 97.4 °F 61.0 °F 30% 29.89 in 10.0 mi SE 5.8 mph - N/A   Clear
8:53 PM 95.0 °F 94.8 °F 60.1 °F 31% 29.89 in 10.0 mi ESE 5.8 mph - N/A   Clear
9:53 PM 93.0 °F 93.0 °F 61.0 °F 34% 29.90 in 10.0 mi ESE 4.6 mph - N/A   Clear
10:53 PM 91.0 °F 90.9 °F 61.0 °F 36% 29.92 in 10.0 mi East 5.8 mph - N/A   Clear
11:53 PM 89.1 °F 88.8 °F 60.1 °F 38% 29.93 in 10.0 mi East 6.9 mph - N/A   Clear